CW5316 Weather Reports


time (UTC)temp
F
wind
direction
speed
knots
gust
knots
rain 1hr
in
rain 24hr
in
rain mn
in
humidity
%
barometer
mb
20260503200041 75 103 0.9 5.2 0.00 0.00 0.00 51 1013.0
20260503195520 75 99 0.9 3.5 0.00 0.00 0.00 50 1013.0
20260503195022 76 19 0.0 2.6 0.00 0.00 0.00 49 1013.0
20260503194543 76 0 0.0 2.6 0.00 0.00 0.00 50 1013.1
20260503194020 75 0 0.0 3.5 0.00 0.00 0.00 50 1013.2
20260503193522 74 0 0.0 3.5 0.00 0.00 0.00 52 1013.2
20260503193042 74 267 0.9 4.3 0.00 0.00 0.00 53 1013.3
20260503192522 74 161 0.0 4.3 0.00 0.00 0.00 53 1013.3
20260503192022 72 60 1.7 7.0 0.00 0.00 0.00 53 1013.4
20260503191538 73 113 0.9 7.0 0.00 0.00 0.00 53 1013.5
20260503191023 73 92 0.9 6.1 0.00 0.00 0.00 53 1013.5
20260503190522 73 0 0.9 4.3 0.00 0.00 0.00 53 1013.5
20260503190041 72 0 0.9 5.2 0.00 0.00 0.00 54 1013.6
20260503185522 72 104 0.9 5.2 0.00 0.00 0.00 54 1013.6
20260503185021 71 56 0.9 5.2 0.00 0.00 0.00 54 1013.6
20260503184555 72 103 0.9 5.2 0.00 0.00 0.00 54 1013.7
20260503184022 72 0 0.0 6.1 0.00 0.00 0.00 55 1013.6
20260503183520 71 268 1.7 6.1 0.00 0.00 0.00 58 1013.8
20260503183041 71 72 1.7 5.2 0.00 0.00 0.00 56 1013.8
20260503182527 71 0 0.0 5.2 0.00 0.00 0.00 58 1013.8
20260503182026 70 94 1.7 6.1 0.00 0.00 0.00 57 1013.8
20260503181540 70 80 1.7 6.1 0.00 0.00 0.00 55 1013.9
20260503181020 70 77 1.7 6.1 0.00 0.00 0.00 55 1013.8
20260503180521 70 0 0.0 4.3 0.00 0.00 0.00 58 1013.9
20260503180038 69 111 1.7 4.3 0.00 0.00 0.00 57 1013.9
20260503175521 70 71 0.0 1.7 0.00 0.00 0.00 57 1014.0
20260503175024 69 0 0.0 2.6 0.00 0.00 0.00 58 1014.1
20260503174552 69 61 0.0 2.6 0.00 0.00 0.00 59 1014.2
20260503174022 69 0 0.0 2.6 0.00 0.00 0.00 59 1014.2
20260503173521 68 116 0.0 2.6 0.00 0.00 0.00 58 1014.2
20260503173041 68 70 0.0 5.2 0.00 0.00 0.00 58 1014.2
20260503172522 67 0 0.0 5.2 0.00 0.00 0.00 61 1014.2
20260503172022 67 115 0.9 5.2 0.00 0.00 0.00 59 1014.3
20260503171540 67 103 0.9 5.2 0.00 0.00 0.00 60 1014.3
20260503171023 67 0 0.0 3.5 0.00 0.00 0.00 59 1014.4
20260503170522 67 0 0.9 3.5 0.00 0.00 0.00 59 1014.3
20260503150522 57 0 0.0 1.7 0.00 0.00 0.00 74 1014.7
20260503131021 52 0 0.0 1.7 0.00 0.00 0.00 84 1014.7
20260503130521 52 0 0.0 1.7 0.00 0.00 0.00 85 1014.7
20260503110521 55 224 0.0 4.3 0.00 0.00 0.00 77 1015.0
20260503081546 57 0 0.0 4.3 0.00 0.00 0.00 82 1015.6
20260503081021 57 0 0.0 1.7 0.00 0.00 0.00 83 1015.5
20260503080522 57 0 0.0 1.7 0.00 0.00 0.00 82 1015.4
20260503072522 58 0 0.0 5.2 0.00 0.00 0.00 81 1015.4
20260503072024 58 0 0.0 5.2 0.00 0.00 0.00 81 1015.3
20260503071544 58 225 0.9 4.3 0.00 0.00 0.00 82 1015.2
20260503071021 58 0 0.0 1.7 0.00 0.00 0.00 82 1015.2
20260503070521 59 0 0.0 1.7 0.00 0.00 0.00 81 1015.2
20260503055020 57 0 0.0 0.0 0.00 0.00 0.00 84 1015.2
20260503054539 57 0 0.0 0.0 0.00 0.00 0.00 84 1015.2
20260503054023 58 0 0.0 0.9 0.00 0.00 0.00 83 1015.2
20260503053521 58 0 0.0 0.9 0.00 0.00 0.00 84 1015.2
20260503053038 58 0 0.0 0.9 0.00 0.00 0.00 83 1015.2
20260503052521 58 0 0.0 1.7 0.00 0.00 0.00 83 1015.2
20260503052026 58 0 0.0 1.7 0.00 0.00 0.00 83 1015.2
20260503051538 58 0 0.0 1.7 0.00 0.00 0.00 83 1015.2
20260503051021 58 0 0.0 0.0 0.00 0.00 0.00 84 1015.2
20260503050520 58 0 0.0 0.0 0.00 0.00 0.00 84 1015.2
20260503050035 58 0 0.0 0.0 0.00 0.00 0.00 83 1015.2
20260503045522 58 0 0.0 0.0 0.00 0.00 0.00 83 1015.2
20260503045019 58 0 0.0 0.0 0.00 0.00 0.00 83 1015.2
20260503044546 58 0 0.0 0.0 0.00 0.00 0.00 82 1015.2
20260503044021 59 0 0.0 0.0 0.00 0.00 0.00 82 1015.1
20260503043520 59 0 0.0 0.0 0.00 0.00 0.00 82 1015.1
20260503043039 59 0 0.0 0.0 0.00 0.00 0.00 82 1015.0
20260503042521 59 0 0.0 0.0 0.00 0.00 0.00 82 1015.0
20260503042021 59 0 0.0 0.0 0.00 0.00 0.00 81 1014.9
20260503041538 60 0 0.0 0.0 0.00 0.00 0.00 81 1014.9
20260503041021 60 0 0.0 0.0 0.00 0.00 0.00 81 1014.9
20260503040520 60 0 0.0 0.0 0.00 0.00 0.00 80 1014.7
20260503040039 60 0 0.0 0.0 0.00 0.00 0.00 80 1014.7
20260503035520 60 0 0.0 0.0 0.00 0.00 0.00 80 1014.5
20260503035021 61 0 0.0 0.0 0.00 0.00 0.00 80 1014.5
20260503034558 61 0 0.0 0.9 0.00 0.00 0.00 80 1014.4
20260503034022 62 0 0.0 0.9 0.00 0.00 0.00 79 1014.4
20260503033520 62 0 0.0 0.9 0.00 0.00 0.00 79 1014.2
20260503033051 62 0 0.0 0.9 0.00 0.00 0.00 79 1014.2
20260503032520 63 0 0.0 0.9 0.00 0.00 0.00 78 1014.0
20260503032020 63 0 0.0 0.9 0.00 0.00 0.00 78 1014.0
20260503031539 63 0 0.0 0.0 0.00 0.00 0.00 78 1013.9
20260503031020 63 0 0.0 0.0 0.00 0.00 0.00 77 1013.9
20260503030524 63 0 0.0 0.0 0.00 0.00 0.00 76 1013.8
20260503030043 63 0 0.0 0.0 0.00 0.00 0.00 76 1013.7
20260503025521 63 0 0.0 1.7 0.00 0.00 0.00 76 1013.7
20260503025021 64 0 0.0 1.7 0.00 0.00 0.00 76 1013.6
20260503024538 64 0 0.0 1.7 0.00 0.00 0.00 76 1013.6
20260503024021 64 0 0.0 0.9 0.00 0.00 0.00 76 1013.5
20260503023521 64 0 0.0 0.9 0.00 0.00 0.00 75 1013.4
20260503023043 65 246 0.0 1.7 0.00 0.00 0.00 75 1013.3
20260503022521 65 0 0.0 1.7 0.00 0.00 0.00 75 1013.3
20260503022020 65 0 0.0 0.9 0.00 0.00 0.00 75 1013.3
20260503021539 65 0 0.0 0.9 0.00 0.00 0.00 74 1013.4
20260503021021 66 0 0.0 0.9 0.00 0.00 0.00 74 1013.3
20260503020520 66 0 0.0 0.9 0.00 0.00 0.00 73 1013.3
20260503020039 66 0 0.0 1.7 0.00 0.00 0.00 72 1013.3
20260503015521 67 0 0.0 1.7 0.00 0.00 0.00 71 1013.3
20260503015020 67 0 0.0 0.9 0.00 0.00 0.00 71 1013.2
20260503014541 68 0 0.0 1.7 0.00 0.00 0.00 69 1013.3
20260503014020 68 0 0.0 2.6 0.00 0.00 0.00 68 1013.4
20260503013520 68 263 0.9 2.6 0.00 0.00 0.00 68 1013.4
20260503013038 69 250 0.9 2.6 0.00 0.00 0.00 67 1013.3
20260503012522 69 256 0.9 2.6 0.00 0.00 0.00 66 1013.3
20260503012022 70 231 0.0 1.7 0.00 0.00 0.00 65 1013.4
20260503011541 71 0 0.0 1.7 0.00 0.00 0.00 64 1013.3
20260503011020 71 265 0.0 2.6 0.00 0.00 0.00 63 1013.2
20260503010521 71 0 0.0 2.6 0.00 0.00 0.00 62 1013.2
20260503010041 72 0 0.0 2.6 0.00 0.00 0.00 63 1013.2
20260503005520 72 128 0.0 2.6 0.00 0.00 0.00 61 1013.4
20260503005022 72 0 0.0 3.5 0.00 0.00 0.00 61 1013.3
20260503004539 72 0 0.0 3.5 0.00 0.00 0.00 61 1013.4
20260503004021 72 0 0.0 2.6 0.00 0.00 0.00 62 1013.4
20260503003521 73 5 0.0 1.7 0.00 0.00 0.00 60 1013.4
20260503003049 72 0 0.0 1.7 0.00 0.00 0.00 60 1013.4
20260503002520 73 0 0.0 3.5 0.00 0.00 0.00 60 1013.3
20260503002023 72 236 0.0 3.5 0.00 0.00 0.00 60 1013.4
20260503001605 72 336 0.0 2.6 0.00 0.00 0.00 59 1013.4
20260503001019 72 0 0.0 2.6 0.00 0.00 0.00 59 1013.4
20260503000525 72 88 0.9 2.6 0.00 0.00 0.00 59 1013.4
20260503000049 73 86 0.0 1.7 0.00 0.00 0.00 58 1013.5
20260502235521 73 0 0.0 1.7 0.00 0.00 0.00 57 1013.6
20260502235022 73 272 0.0 1.7 0.00 0.00 0.00 58 1013.6
20260502234544 73 0 0.0 2.6 0.00 0.00 0.00 57 1013.6
20260502234021 73 0 0.0 2.6 0.00 0.00 0.00 58 1013.6
20260502233519 73 249 0.9 2.6 0.00 0.00 0.00 57 1013.7
20260502233038 73 0 0.0 2.6 0.00 0.00 0.00 57 1013.7
20260502232522 73 240 0.9 3.5 0.00 0.00 0.00 56 1013.8
20260502232021 73 0 0.9 3.5 0.00 0.00 0.00 57 1014.0
20260502231538 73 5 0.0 2.6 0.00 0.00 0.00 58 1014.1
20260502231022 74 0 0.9 2.6 0.00 0.00 0.00 56 1014.2
20260502230522 73 144 0.9 3.5 0.00 0.00 0.00 57 1014.1
20260502230038 73 0 0.9 3.5 0.00 0.00 0.00 57 1014.2
20260502225521 74 302 0.0 3.5 0.00 0.00 0.00 56 1014.3
20260502225023 73 350 0.0 3.5 0.00 0.00 0.00 57 1014.3
20260502224542 73 283 0.0 3.5 0.00 0.00 0.00 57 1014.4
20260502224023 73 272 0.0 3.5 0.00 0.00 0.00 56 1014.5
20260502223525 73 210 0.0 3.5 0.00 0.00 0.00 57 1014.5
20260502223039 73 0 0.0 3.5 0.00 0.00 0.00 57 1014.6
20260502222523 72 0 0.0 3.5 0.00 0.00 0.00 59 1014.6
20260502222022 72 96 0.9 7.0 0.00 0.00 0.00 57 1014.7
20260502221542 71 0 0.0 7.0 0.00 0.00 0.00 57 1014.7
20260502221022 71 98 0.9 4.3 0.00 0.00 0.00 58 1014.6
20260502220521 72 304 0.0 1.7 0.00 0.00 0.00 58 1014.7
20260502220039 72 0 0.0 4.3 0.00 0.00 0.00 58 1014.7
20260502215522 70 0 0.9 5.2 0.00 0.00 0.00 59 1014.8
20260502215021 70 88 0.9 5.2 0.00 0.00 0.00 59 1014.9
20260502214545 71 59 0.9 5.2 0.00 0.00 0.00 57 1014.9
20260502214020 70 59 1.7 5.2 0.00 0.00 0.00 59 1014.9
20260502213520 70 0 0.9 6.1 0.00 0.00 0.00 59 1014.9
20260502213043 71 108 0.0 6.1 0.00 0.00 0.00 57 1014.9
20260502212520 70 41 1.7 6.1 0.00 0.00 0.00 59 1015.0
20260502212021 69 104 0.9 5.2 0.00 0.00 0.00 60 1015.0
20260502211539 70 123 0.9 5.2 0.00 0.00 0.00 62 1015.0
20260502211021 69 0 0.0 5.2 0.00 0.00 0.00 59 1015.1
20260502210521 69 0 0.9 5.2 0.00 0.00 0.00 60 1015.1
20260502210043 69 71 0.0 5.2 0.00 0.00 0.00 61 1015.1
20260502205521 69 260 0.0 5.2 0.00 0.00 0.00 60 1015.1
20260502205022 69 112 0.0 5.2 0.00 0.00 0.00 60 1015.1
20260502204542 68 0 0.0 6.1 0.00 0.00 0.00 62 1015.2
20260502204021 68 113 0.9 6.1 0.00 0.00 0.00 61 1015.4
20260502203521 68 132 1.7 6.1 0.00 0.00 0.00 61 1015.4
20260502203038 68 91 1.7 5.2 0.00 0.00 0.00 60 1015.3
20260502202520 69 245 0.0 4.3 0.00 0.00 0.00 62 1015.4
20260502202021 68 293 0.9 5.2 0.00 0.00 0.00 62 1015.4
20260502201533 66 107 1.7 5.2 0.00 0.00 0.00 63 1015.5
20260502201021 67 116 0.9 5.2 0.00 0.00 0.00 62 1015.5
20260502200521 67 0 1.7 5.2 0.00 0.00 0.00 63 1015.5